Weather History for Sedalia, MO

Change the Weather History Date:

Monday, June 24, 2013

  Actual Average Record
Temperature  
Mean Temperature 83 °F 77 °F  
Max Temperature 91 °F 87 °F 102 °F (1988)
Min Temperature 74 °F 68 °F 49 °F (1974)
Degree Days  
Heating Degree Days 0 0  
Month to date heating degree days 9 4  
Since 1 June heating degree days 9 4  
Since 1 July heating degree days 4745 4569  
Cooling Degree Days 18 12  
Month to date cooling degree days 220 228  
Year to date cooling degree days 368 367  
Since 1 June cooling degree days 220 228  
Growing Degree Days 32 (Base 50)    
Moisture  
Dew Point 71 °F    
Average Humidity 70    
Maximum Humidity 87    
Minimum Humidity 52    
Precipitation  
Precipitation T in 0.14 in 1.94 in (1977)
Month to date precipitation 2.20 4.29  
Year to date precipitation 25.20 19.44  
Sea Level Pressure  
Sea Level Pressure 29.95 in    
Wind  
Wind Speed 11 mph (SSW)    
Max Wind Speed 28 mph    
Max Gust Speed 33 mph    
Visibility 10 miles    
Events Rain , Thunderstorm    
T = Trace of Precipitation, MM = Missing Value Source: NWS Daily Summary

Daily Weather History Graph

Daily Weather History Graph

Search for Another Location

Airport:

Trip Planner

Search our weather history database for the weather conditions in past years. The results will help you decide how hot, cold, wet, or windy it might be!

Date:

Astronomy

Jun. 24, 2013 Rise Set
Actual Time 5:49 AM CDT 8:41 PM CDT
Civil Twilight 5:17 AM CDT 9:13 PM CDT
Nautical Twilight 4:36 AM CDT 9:53 PM CDT
Astronomical Twilight 3:50 AM CDT 10:39 PM CDT
Moon 9:45 PM CDT (6/24) 7:16 AM CDT (6/24)
Length of Visible Light 15h 56m
Length of Day
14h 52m
Full, 98% of the Moon is Illuminated
Jun 24
Full
Jun 29
Last Quarter
Jul 8
New
Jul 15
First Quarter
Jul 22
Full

Hourly Weather History & Observations

Time (CDT) Temp. Heat Index Dew Point Humidity Pressure Visibility Wind Dir Wind Speed Gust Speed Precip Events Conditions
12:53 AM 77.0 °F - 71.1 °F 82% 29.96 in 10.0 mi South 11.5 mph - N/A   Clear
1:53 AM 75.9 °F - 71.1 °F 85% 29.96 in 10.0 mi South 11.5 mph - N/A   Clear
2:53 AM 75.9 °F - 71.1 °F 85% 29.96 in 10.0 mi South 12.7 mph - N/A   Clear
3:53 AM 75.9 °F - 70.0 °F 82% 29.95 in 10.0 mi South 9.2 mph - N/A   Clear
4:53 AM 75.9 °F - 69.1 °F 79% 29.95 in 10.0 mi SSW 10.4 mph - N/A   Clear
5:53 AM 73.9 °F - 69.1 °F 85% 29.97 in 10.0 mi South 8.1 mph - N/A   Clear
6:53 AM 75.0 °F - 70.0 °F 84% 29.98 in 9.0 mi South 9.2 mph - N/A   Clear
7:53 AM 77.0 °F - 71.1 °F 82% 29.99 in 10.0 mi South 11.5 mph - N/A   Clear
8:53 AM 80.1 °F 83.2 °F 70.0 °F 71% 30.00 in 10.0 mi SSW 13.8 mph 24.2 mph N/A   Clear
9:53 AM 82.9 °F 87.5 °F 71.1 °F 67% 29.99 in 10.0 mi South 9.2 mph 20.7 mph N/A   Clear
10:48 AM 82.4 °F 87.2 °F 71.6 °F 70% 30.03 in 10.0 mi SSW 8.1 mph 17.3 mph N/A Thunderstorm Clear
10:53 AM 82.9 °F 88.0 °F 72.0 °F 69% 30.00 in 10.0 mi SSW 8.1 mph - N/A Thunderstorm Partly Cloudy
11:03 AM 82.4 °F 87.2 °F 71.6 °F 70% 30.03 in 8.0 mi SW 11.5 mph 16.1 mph 0.00 in Rain Light Rain
11:53 AM 82.9 °F 89.4 °F 73.9 °F 74% 30.00 in 10.0 mi South 8.1 mph - 0.00 in   Partly Cloudy
12:53 PM 88.0 °F 95.6 °F 73.0 °F 61% 29.99 in 10.0 mi SW 9.2 mph 18.4 mph N/A   Clear
1:53 PM 88.0 °F 94.7 °F 72.0 °F 59% 29.99 in 10.0 mi SSW 9.2 mph - N/A   Scattered Clouds
2:53 PM 90.0 °F 97.9 °F 73.0 °F 57% 29.96 in 10.0 mi SW 9.2 mph - N/A   Clear
3:53 PM 90.0 °F 96.9 °F 72.0 °F 55% 29.94 in 10.0 mi South 15.0 mph - N/A   Partly Cloudy
4:53 PM 91.0 °F 98.2 °F 72.0 °F 53% 29.92 in 10.0 mi South 16.1 mph 27.6 mph N/A   Partly Cloudy
5:53 PM 88.0 °F 94.7 °F 72.0 °F 59% 29.89 in 10.0 mi South 18.4 mph - N/A   Clear
6:53 PM 87.1 °F 95.4 °F 73.9 °F 65% 29.89 in 10.0 mi South 10.4 mph - N/A   Clear
7:53 PM 84.9 °F 90.7 °F 72.0 °F 65% 29.86 in 10.0 mi SSE 11.5 mph 21.9 mph N/A   Clear
8:53 PM 84.0 °F 89.6 °F 72.0 °F 67% 29.86 in 10.0 mi SSE 17.3 mph - N/A   Partly Cloudy
9:53 PM 84.0 °F 88.4 °F 70.0 °F 63% 29.83 in 10.0 mi South 19.6 mph 28.8 mph N/A   Clear
10:53 PM 82.9 °F 86.5 °F 69.1 °F 63% 29.90 in 10.0 mi SW 6.9 mph - N/A   Clear
11:53 PM 80.1 °F 82.9 °F 69.1 °F 69% 29.92 in 10.0 mi SSW 6.9 mph - N/A   Clear